Regional Weather Roundup
Issued by NWS

Home | Current Version | Previous Version | Text Only | Print | Product List | Glossary On
Versions: 1 2 3 4 5 6 7 8 9 10 11 12 13 14 15 16 17 18 19 20 21 22 23 24 25 26 27 28 29 30 31 32 33 34 35 36 37 38 39 40 41 42 43 44 45 46 47 48 49 50
000
ASCA44 KEWX 291420
RWRMX

LATIN AMERICA AND CARIBBEAN REGIONAL WEATHER ROUNDUP
NATIONAL WEATHER SERVICE AUSTIN/SAN ANTONIO TX
900 AM CDT FRI APR 29 2016

NOTE: "FAIR" INDICATED FEW OR NO CLOUDS BELOW 12,000 FEET WITH NO
SIGNIFICANT WEATHER AND/OR OBSTRUCTIONS TO VISIBILITY.

BAJA CALIFORNIA

CITY           SKY/WX    TMP DP  RH WIND       PRES   REMARKS
LORETO         PTSUNNY   68  50  52 N6        29.88R
LA PAZ         PTSUNNY   59  52  77 S5        29.91
MEXICALI       SUNNY     59  41  51 W3        29.87
S.J. DEL CABO  PTSUNNY   66  63  88 CALM      29.87R
TIJUANA        SUNNY     54  43  66 CALM      30.02R

NORTHWESTERN MEXICO

CITY           SKY/WX    TMP DP  RH WIND       PRES   REMARKS
CULIACAN       PTSUNNY   70  68  94 CALM      29.88R
DURANGO        CLOUDY    52  30  43 CALM      30.08R
GUAYMAS        SUNNY     66  48  52 CALM      29.86
HERMOSILLO     SUNNY     61  43  51 CALM      29.92R
CD. JUAREZ     SUNNY     57  37  47 NW15      29.81R
OBREGON        MOSUNNY   63  52  67 CALM      29.86

NORTHEASTERN MEXICO

CITY           SKY/WX    TMP DP  RH WIND       PRES   REMARKS
CHIHUAHUA      MOSUNNY   61  28  29 NW7       29.92R
MATAMOROS      CLOUDY    79  75  89 SE17      29.69R
MONCLOVA         N/A    N/A N/A N/A MISG        N/A
MONTERREY      CLOUDY    75  68  78 E9        29.70R HAZE
NUEVO LAREDO   CLOUDY    79  73  83 SE14      29.67R
PIEDRAS NEGRAS FOG       75  73  94 E6        29.70  VSB 3/4
REYNOSA        CLOUDY    79  73  83 S12       29.67R FOG
SALTILLO       CLOUDY    72  45  37 S6        29.97R
TORREON        CLOUDY    72  27  18 CALM      29.88R
CD. VICTORIA   CLOUDY    77  72  83 SE12      29.69R

WESTERN MEXICO

CITY           SKY/WX    TMP DP  RH WIND       PRES   REMARKS
AGUASCALIENTES MOSUNNY   57  32  38 S5        30.15R
COLIMA         PTSUNNY   72  46  40 CALM      29.98R
DEL BAJIO      PTSUNNY   64  32  29 CALM      30.20R
GUADALAJARA    PTSUNNY   57  39  51 CALM      30.09R
MANZANILLO     PTSUNNY   64  63  94 CALM      29.82S
MAZATLAN       CLOUDY    72  66  83 CALM      29.87R
P. VALLARTA    CLOUDY    75  68  78 S6        29.88R
URUAPAN        PTSUNNY   57  41  54 CALM      30.11R
ZACATECAS      PTSUNNY   57  30  35 SW17      30.13R

CENTRAL MEXICO

CITY           SKY/WX    TMP DP  RH WIND       PRES   REMARKS
CUERNAVACA       N/A    N/A N/A N/A MISG        N/A
MEXICO CITY    PTSUNNY   68  36  30 CALM      30.23R
MORELIA        MOSUNNY   72  30  21 SW7       30.14R
POZA RICA      CLOUDY    77  75  94 CALM      29.72R FOG
PUEBLA         MOSUNNY   57  39  51 NW5       30.26
QUERETARO      MOSUNNY   63  34  34 NW7       30.18R
S. LUIS POTOSI PTSUNNY   66  25  20 S7        30.09R
TAMPICO        PTSUNNY   81  77  89 E3        29.70R FOG
TOLUCA         MOSUNNY   55  39  54 SE3       30.32R

SOUTHERN MEXICO

CITY           SKY/WX    TMP DP  RH WIND       PRES   REMARKS
ACAPULCO       PTSUNNY   77  70  78 NW6       29.84R
B. DE HUATULCO PTSUNNY   75  54  46 CALM      29.88R
OAXACA         SUNNY     70  54  56 E2        30.16R
P. ESCONDIDO   MOSUNNY   81  72  74 CALM      29.90R
VERACRUZ       SUNNY     81  73  78 S8        29.71R
ZIHUATANEJO    PTSUNNY   68  63  83 E2        29.85R

YUCATAN PENINSULA

CITY           SKY/WX    TMP DP  RH WIND       PRES   REMARKS
CAMPECHE       MOSUNNY   84  73  70 SE28      29.78R HX  91
CANCUN         PTSUNNY   82  75  78 E15       29.92R
CHETUMAL       PTSUNNY   84  77  79 E14       29.86R HX  94
CD. DEL CARMEN MOSUNNY   84  73  70 SE18      29.78R HX  91
COZUMEL        PTSUNNY   81  75  83 E17       29.91R
MERIDA         PTSUNNY   82  73  74 SE21      29.85S
MINATITLAN     SUNNY     81  70  69 CALM      29.71S
TAPACHULA      MOSUNNY   84  77  79 CALM      29.81R HX  94
TUX. GUTIERREZ MOSUNNY   75  59  57 SE2       29.90R
VILLAHERMOSA   MOSUNNY   82  75  78 E8        29.77S

CENTRAL AMERICA

CITY           SKY/WX    TMP DP  RH WIND       PRES   REMARKS
BELIZE CITY    MOSUNNY   86  79  79 E10       29.87R HX  99
MANAGUA        MOSUNNY   86  73  66 E9        29.86S HX  93

CARIBBEAN

CITY           SKY/WX    TMP DP  RH WIND       PRES   REMARKS
ARUBA          MOSUNNY   88  77  70 E22       29.86S HX 100
CURACAO        MOSUNNY   86  79  79 E17       29.89S HX  99
KINGSTON       MOSUNNY   84  73  70 NW3       29.92R HX  91
NASSAU         MOSUNNY   82  64  54 NE5       30.03F
SAN JUAN       PTSUNNY   82  75  78 E3        29.96R
SANTO DOMINGO  MOSUNNY   84  75  74 E5        29.94R HX  92
ST. CROIX      SUNNY     86  75  70 E13       29.97S HX  95
ST. KITTS      MOSUNNY   88  73  62 E12       29.94F HX  96
ST. MAARTEN    MOSUNNY   84  75  74 SE10      29.97R HX  92
ST. THOMAS     MOSUNNY   84  75  74 SE12      29.96R HX  92

$$




USA.gov is the U.S. government's official web portal to all federal, state and local government web resources and services.